User: anonymous   Login
Location: Unspecified
(0.0000°N, 0.0000°E)
Time: 18:10:43
(UTC+02:00)
Language:

Cosmos 1315 Rocket - Orbit

View from above orbital plane
View from above orbital plane
View from above satellite
View from above satellite

Ground track
Ground track

The orbit data is extracted from the following two-line orbital elements,

1 12904U 81103B   16125.52111439  .00001238  00000-0  85193-4 0  9994
2 12904  81.1791  22.1641 0028265 331.9640  28.0058 15.04900663431353
Epoch (UTC): 04 May 2016 12:30:24
Eccentricity: 0.0028265
inclination: 81.1791°
perigee height: 532 km
apogee height: 571 km
right ascension of ascending node: 22.1641°
argument of perigee: 331.9640°
revolutions per day: 15.04900663
mean anomaly at epoch: 28.0058°
orbit number at epoch: 43135

The dashed part of the orbit path shows where the satellite is in the earth's shadow,  

DLR